| time (UTC) | temp C | wind direction | speed KPH | gust KPH | rain 1hr cm | rain 24hr cm | rain mn cm | humidity % | barometer mb |
| 20260509075136 | 0 | 180 | 1.6 | 1.6 | 0.00 | 0.00 | 0.00 | 91 | 1016.3 |
| 20260509074137 | 0 | 180 | 0.0 | 0.0 | 0.00 | 0.00 | 0.00 | 90 | 1016.5 |
| 20260509073136 | 0 | 180 | 0.0 | 0.0 | 0.00 | 0.00 | 0.00 | 89 | 1016.5 |
| 20260509073037 | 0 | 180 | 0.0 | 0.0 | 0.00 | 0.00 | 0.00 | 89 | 1016.5 |
| 20260509072038 | 0 | 180 | 0.0 | 0.0 | 0.00 | 0.00 | 0.00 | 89 | 1016.6 |
| 20260509071936 | 0 | 180 | 0.0 | 0.0 | 0.00 | 0.00 | 0.00 | 89 | 1016.6 |
| 20260509065953 | 0 | 180 | 0.0 | 0.0 | 0.00 | 0.00 | 0.00 | 88 | 1016.3 |
| 20260509064936 | 0 | 180 | 0.0 | 0.0 | 0.00 | 0.00 | 0.00 | 88 | 1016.5 |
| 20260509062938 | 0 | 22 | 0.0 | 0.0 | 0.00 | 0.00 | 0.00 | 88 | 1016.6 |
| 20260509061938 | 1 | 22 | 0.0 | 1.6 | 0.00 | 0.00 | 0.00 | 87 | 1016.6 |
| 20260509061036 | 1 | 22 | 1.6 | 3.2 | 0.00 | 0.00 | 0.00 | 87 | 1016.7 |
| 20260509060937 | 1 | 337 | 0.0 | 3.2 | 0.00 | 0.00 | 0.00 | 87 | 1016.7 |
| 20260509055936 | 1 | 315 | 0.0 | 0.0 | 0.00 | 0.00 | 0.00 | 85 | 1016.8 |
| 20260509053135 | 1 | 315 | 0.0 | 0.0 | 0.00 | 0.00 | 0.00 | 84 | 1016.9 |
| 20260509052151 | 1 | 315 | 0.0 | 0.0 | 0.00 | 0.00 | 0.00 | 82 | 1016.7 |
| 20260509051235 | 2 | 315 | 0.0 | 0.0 | 0.00 | 0.00 | 0.00 | 82 | 1016.6 |
| 20260509050239 | 2 | 315 | 0.0 | 0.0 | 0.00 | 0.00 | 0.00 | 81 | 1016.7 |
| 20260509045335 | 2 | 315 | 0.0 | 0.0 | 0.00 | 0.00 | 0.00 | 80 | 1016.5 |
| 20260509045237 | 2 | 315 | 0.0 | 0.0 | 0.00 | 0.00 | 0.00 | 80 | 1016.5 |
| 20260509043235 | 2 | 315 | 0.0 | 0.0 | 0.00 | 0.00 | 0.00 | 79 | 1016.5 |
| 20260509042236 | 3 | 315 | 0.0 | 0.0 | 0.00 | 0.00 | 0.00 | 77 | 1016.4 |
| 20260509041335 | 3 | 315 | 0.0 | 0.0 | 0.00 | 0.00 | 0.00 | 77 | 1016.4 |
| 20260509040238 | 3 | 315 | 0.0 | 0.0 | 0.00 | 0.00 | 0.00 | 75 | 1016.3 |
| 20260509035246 | 3 | 225 | 0.0 | 0.0 | 0.00 | 0.00 | 0.00 | 74 | 1016.3 |
| 20260509032247 | 4 | 281 | 0.0 | 3.2 | 0.00 | 0.00 | 0.00 | 74 | 1016.3 |
| 20260509025347 | 4 | 112 | 0.0 | 0.0 | 0.00 | 0.00 | 0.00 | 72 | 1016.0 |
| 20260509024345 | 5 | 112 | 0.0 | 0.0 | 0.00 | 0.00 | 0.00 | 70 | 1015.8 |
| 20260509023345 | 5 | 112 | 0.0 | 0.0 | 0.00 | 0.00 | 0.00 | 70 | 1016.0 |
| 20260509023244 | 5 | 112 | 0.0 | 0.0 | 0.00 | 0.00 | 0.00 | 69 | 1016.0 |
| 20260509022246 | 5 | 112 | 1.6 | 1.6 | 0.00 | 0.00 | 0.00 | 68 | 1015.9 |
| 20260509021344 | 6 | 112 | 0.0 | 1.6 | 0.00 | 0.00 | 0.00 | 66 | 1015.8 |
| 20260509020345 | 6 | 112 | 0.0 | 1.6 | 0.00 | 0.00 | 0.00 | 64 | 1015.7 |
| 20260509015444 | 7 | 22 | 1.6 | 1.6 | 0.00 | 0.00 | 0.00 | 61 | 1015.5 |
| 20260509014445 | 7 | 270 | 0.0 | 1.6 | 0.00 | 0.00 | 0.00 | 59 | 1015.5 |
| 20260509014344 | 7 | 270 | 0.0 | 1.6 | 0.00 | 0.00 | 0.00 | 59 | 1015.4 |
| 20260509012345 | 7 | 263 | 3.2 | 6.4 | 0.00 | 0.00 | 0.00 | 59 | 1015.1 |
| 20260509011346 | 7 | 254 | 1.6 | 3.2 | 0.00 | 0.00 | 0.00 | 59 | 1015.0 |
| 20260509010347 | 7 | 242 | 3.2 | 8.0 | 0.00 | 0.00 | 0.00 | 58 | 1015.0 |
| 20260509005347 | 8 | 247 | 1.6 | 3.2 | 0.00 | 0.00 | 0.00 | 57 | 1014.6 |
| 20260509004444 | 8 | 247 | 1.6 | 3.2 | 0.00 | 0.00 | 0.00 | 56 | 1014.4 |
| 20260509004347 | 8 | 247 | 1.6 | 3.2 | 0.00 | 0.00 | 0.00 | 56 | 1014.5 |
| 20260509003347 | 8 | 247 | 1.6 | 3.2 | 0.00 | 0.00 | 0.00 | 56 | 1014.4 |
| 20260509002345 | 8 | 253 | 3.2 | 4.8 | 0.00 | 0.00 | 0.00 | 55 | 1014.3 |
| 20260509001346 | 8 | 311 | 1.6 | 3.2 | 0.00 | 0.00 | 0.00 | 55 | 1014.1 |
| 20260509000444 | 8 | 246 | 4.8 | 8.0 | 0.00 | 0.00 | 0.00 | 54 | 1014.0 |
| 20260509000348 | 8 | 244 | 4.8 | 6.4 | 0.00 | 0.00 | 0.00 | 55 | 1014.1 |
| 20260508235444 | 8 | 248 | 3.2 | 6.4 | 0.00 | 0.00 | 0.00 | 54 | 1014.1 |
| 20260508234447 | 8 | 274 | 8.0 | 14.5 | 0.00 | 0.00 | 0.00 | 54 | 1013.8 |
| 20260508233447 | 8 | 253 | 3.2 | 8.0 | 0.00 | 0.00 | 0.00 | 53 | 1013.7 |
| 20260508232446 | 8 | 293 | 8.0 | 14.5 | 0.00 | 0.00 | 0.00 | 51 | 1013.5 |
| 20260508230545 | 9 | 277 | 9.7 | 14.5 | 0.00 | 0.00 | 0.00 | 48 | 1013.4 |
| 20260508223746 | 10 | 261 | 6.4 | 12.9 | 0.00 | 0.00 | 0.00 | 49 | 1013.3 |
| 20260508221802 | 10 | 259 | 8.0 | 11.3 | 0.00 | 0.00 | 0.00 | 45 | 1013.4 |
| 20260508221646 | 10 | 264 | 9.7 | 14.5 | 0.00 | 0.00 | 0.00 | 44 | 1013.3 |
| 20260508220647 | 11 | 254 | 12.9 | 20.9 | 0.00 | 0.00 | 0.00 | 42 | 1013.1 |
| 20260508220547 | 11 | 249 | 8.0 | 19.3 | 0.00 | 0.00 | 0.00 | 41 | 1013.2 |
| 20260508215601 | 11 | 240 | 3.2 | 4.8 | 0.00 | 0.00 | 0.00 | 40 | 1012.9 |
| 20260508215446 | 11 | 236 | 6.4 | 11.3 | 0.00 | 0.00 | 0.00 | 39 | 1012.8 |
| 20260508214448 | 11 | 263 | 9.7 | 17.7 | 0.00 | 0.00 | 0.00 | 39 | 1012.6 |
| 20260508211546 | 11 | 302 | 3.2 | 6.4 | 0.00 | 0.00 | 0.00 | 41 | 1012.3 |
| 20260508210546 | 11 | 271 | 1.6 | 4.8 | 0.00 | 0.00 | 0.00 | 40 | 1012.3 |
| 20260508204645 | 11 | 271 | 4.8 | 9.7 | 0.00 | 0.00 | 0.00 | 40 | 1012.2 |
| 20260508203703 | 11 | 242 | 4.8 | 9.7 | 0.00 | 0.00 | 0.00 | 39 | 1012.1 |
| 20260508202647 | 12 | 190 | 4.8 | 8.0 | 0.00 | 0.00 | 0.00 | 39 | 1012.0 |
| 20260508201646 | 11 | 185 | 4.8 | 8.0 | 0.00 | 0.00 | 0.00 | 39 | 1012.0 |
| 20260508201547 | 11 | 264 | 4.8 | 8.0 | 0.00 | 0.00 | 0.00 | 40 | 1012.1 |
| 20260508200544 | 11 | 294 | 4.8 | 11.3 | 0.00 | 0.00 | 0.00 | 37 | 1012.1 |
| 20260508195546 | 11 | 241 | 11.3 | 24.1 | 0.00 | 0.00 | 0.00 | 37 | 1011.9 |
| 20260508194644 | 12 | 236 | 11.3 | 20.9 | 0.00 | 0.00 | 0.00 | 35 | 1011.9 |
| 20260508194547 | 12 | 249 | 11.3 | 24.1 | 0.00 | 0.00 | 0.00 | 36 | 1011.7 |
| 20260508193546 | 12 | 278 | 8.0 | 11.3 | 0.00 | 0.00 | 0.00 | 37 | 1011.6 |
| 20260508192645 | 12 | 191 | 3.2 | 4.8 | 0.00 | 0.00 | 0.00 | 37 | 1011.9 |
| 20260508191646 | 11 | 288 | 8.0 | 17.7 | 0.00 | 0.00 | 0.00 | 36 | 1011.9 |
| 20260508185747 | 11 | 245 | 9.7 | 12.9 | 0.00 | 0.00 | 0.00 | 37 | 1012.2 |
| 20260508184748 | 11 | 257 | 6.4 | 17.7 | 0.00 | 0.00 | 0.00 | 37 | 1012.1 |
| 20260508184645 | 11 | 255 | 12.9 | 24.1 | 0.00 | 0.00 | 0.00 | 37 | 1012.1 |
| 20260508183645 | 11 | 309 | 6.4 | 11.3 | 0.00 | 0.00 | 0.00 | 35 | 1012.2 |
| 20260508181645 | 11 | 294 | 6.4 | 11.3 | 0.00 | 0.00 | 0.00 | 36 | 1012.4 |
| 20260508180644 | 11 | 308 | 8.0 | 12.9 | 0.00 | 0.00 | 0.00 | 36 | 1012.2 |
| 20260508175744 | 11 | 262 | 8.0 | 14.5 | 0.00 | 0.00 | 0.00 | 36 | 1012.3 |
| 20260508174744 | 11 | 253 | 6.4 | 16.1 | 0.00 | 0.00 | 0.00 | 37 | 1012.4 |
| 20260508171745 | 11 | 334 | 4.8 | 11.3 | 0.00 | 0.00 | 0.00 | 36 | 1012.4 |
| 20260508165846 | 11 | 304 | 8.0 | 11.3 | 0.00 | 0.00 | 0.00 | 35 | 1012.2 |
| 20260508164844 | 11 | 306 | 4.8 | 12.9 | 0.00 | 0.00 | 0.00 | 34 | 1012.3 |
| 20260508164747 | 11 | 360 | 1.6 | 6.4 | 0.00 | 0.00 | 0.00 | 35 | 1012.3 |
| 20260508163745 | 10 | 221 | 11.3 | 19.3 | 0.00 | 0.00 | 0.00 | 34 | 1012.4 |
| 20260508161844 | 11 | 266 | 4.8 | 9.7 | 0.00 | 0.00 | 0.00 | 34 | 1012.3 |
| 20260508161744 | 11 | 249 | 9.7 | 17.7 | 0.00 | 0.00 | 0.00 | 34 | 1012.3 |
| 20260508154946 | 11 | 297 | 8.0 | 14.5 | 0.00 | 0.00 | 0.00 | 36 | 1012.0 |
| 20260508154900 | 11 | 331 | 6.4 | 9.7 | 0.00 | 0.00 | 0.00 | 36 | 1012.0 |
| 20260508151945 | 10 | 237 | 12.9 | 22.5 | 0.00 | 0.00 | 0.00 | 39 | 1012.4 |
| 20260508151901 | 10 | 280 | 6.4 | 14.5 | 0.00 | 0.00 | 0.00 | 38 | 1012.4 |
| 20260508150845 | 10 | 329 | 8.0 | 11.3 | 0.00 | 0.00 | 0.00 | 40 | 1012.4 |
| 20260508145846 | 10 | 326 | 4.8 | 6.4 | 0.00 | 0.00 | 0.00 | 41 | 1012.5 |
| 20260508145745 | 10 | 318 | 6.4 | 12.9 | 0.00 | 0.00 | 0.00 | 41 | 1012.4 |
| 20260508144746 | 10 | 248 | 6.4 | 9.7 | 0.00 | 0.00 | 0.00 | 43 | 1012.4 |
| 20260508144647 | 10 | 323 | 4.8 | 14.5 | 0.00 | 0.00 | 0.00 | 43 | 1012.4 |
| 20260508143644 | 10 | 310 | 9.7 | 12.9 | 0.00 | 0.00 | 0.00 | 44 | 1012.3 |
| 20260508143544 | 10 | 285 | 8.0 | 19.3 | 0.00 | 0.00 | 0.00 | 45 | 1012.4 |
| 20260508141546 | 9 | 290 | 6.4 | 11.3 | 0.00 | 0.00 | 0.00 | 47 | 1012.7 |
| 20260508140545 | 9 | 312 | 0.0 | 4.8 | 0.00 | 0.00 | 0.00 | 48 | 1012.7 |
| 20260508140445 | 9 | 321 | 8.0 | 11.3 | 0.00 | 0.00 | 0.00 | 47 | 1012.9 |
| 20260508135444 | 8 | 276 | 3.2 | 8.0 | 0.00 | 0.00 | 0.00 | 48 | 1012.9 |
| 20260508135344 | 8 | 348 | 1.6 | 3.2 | 0.00 | 0.00 | 0.00 | 48 | 1013.0 |
| 20260508134347 | 8 | 229 | 6.4 | 9.7 | 0.00 | 0.00 | 0.00 | 48 | 1013.2 |
| 20260508133345 | 8 | 281 | 8.0 | 14.5 | 0.00 | 0.00 | 0.00 | 50 | 1013.2 |
| 20260508132444 | 8 | 270 | 11.3 | 17.7 | 0.00 | 0.00 | 0.00 | 50 | 1013.2 |
| 20260508131445 | 7 | 261 | 6.4 | 14.5 | 0.00 | 0.00 | 0.00 | 51 | 1013.2 |
| 20260508131401 | 7 | 260 | 8.0 | 14.5 | 0.00 | 0.00 | 0.00 | 50 | 1013.2 |
| 20260508130443 | 7 | 335 | 6.4 | 11.3 | 0.00 | 0.00 | 0.00 | 51 | 1013.3 |
| 20260508125445 | 7 | 335 | 4.8 | 9.7 | 0.00 | 0.00 | 0.00 | 52 | 1013.3 |
| 20260508125344 | 7 | 265 | 4.8 | 9.7 | 0.00 | 0.00 | 0.00 | 52 | 1013.3 |
| 20260508124346 | 7 | 308 | 4.8 | 11.3 | 0.00 | 0.00 | 0.00 | 52 | 1013.3 |
| 20260508124245 | 7 | 269 | 6.4 | 16.1 | 0.00 | 0.00 | 0.00 | 52 | 1013.3 |
| 20260508123247 | 7 | 275 | 8.0 | 11.3 | 0.00 | 0.00 | 0.00 | 52 | 1013.2 |
| 20260508123145 | 7 | 242 | 9.7 | 20.9 | 0.00 | 0.00 | 0.00 | 53 | 1013.2 |
| 20260508122146 | 7 | 254 | 8.0 | 12.9 | 0.00 | 0.00 | 0.00 | 54 | 1013.2 |
| 20260508121146 | 7 | 333 | 4.8 | 12.9 | 0.00 | 0.00 | 0.00 | 55 | 1013.2 |
| 20260508120146 | 7 | 301 | 6.4 | 11.3 | 0.00 | 0.00 | 0.00 | 55 | 1013.2 |
| 20260508115147 | 6 | 275 | 4.8 | 11.3 | 0.00 | 0.00 | 0.00 | 56 | 1013.2 |
| 20260508114146 | 6 | 254 | 6.4 | 11.3 | 0.00 | 0.00 | 0.00 | 57 | 1013.0 |
| 20260508113201 | 6 | 262 | 1.6 | 4.8 | 0.00 | 0.00 | 0.00 | 57 | 1012.9 |
| 20260508111044 | 6 | 262 | 8.0 | 14.5 | 0.00 | 0.00 | 0.00 | 61 | 1012.8 |
| 20260508110946 | 6 | 249 | 8.0 | 16.1 | 0.00 | 0.00 | 0.00 | 62 | 1012.7 |
| 20260508110045 | 5 | 269 | 6.4 | 9.7 | 0.00 | 0.00 | 0.00 | 67 | 1012.6 |
| 20260508105944 | 5 | 326 | 4.8 | 9.7 | 0.00 | 0.00 | 0.00 | 68 | 1012.6 |
| 20260508104946 | 3 | 247 | 0.0 | 1.6 | 0.00 | 0.00 | 0.00 | 73 | 1012.5 |
| 20260508103945 | 2 | 149 | 0.0 | 3.2 | 0.00 | 0.00 | 0.00 | 74 | 1012.4 |
| 20260508102946 | 3 | 157 | 3.2 | 4.8 | 0.00 | 0.00 | 0.00 | 74 | 1012.3 |
| 20260508102844 | 3 | 189 | 3.2 | 4.8 | 0.00 | 0.00 | 0.00 | 74 | 1012.4 |
| 20260508101845 | 3 | 292 | 0.0 | 0.0 | 0.00 | 0.00 | 0.00 | 75 | 1012.2 |
| 20260508100847 | 3 | 8 | 1.6 | 3.2 | 0.00 | 0.00 | 0.00 | 77 | 1012.0 |
| 20260508095846 | 2 | 258 | 1.6 | 3.2 | 0.00 | 0.00 | 0.00 | 82 | 1012.0 |
| 20260508095744 | 2 | 302 | 3.2 | 4.8 | 0.00 | 0.00 | 0.00 | 83 | 1012.0 |
| 20260508094745 | 1 | 22 | 0.0 | 0.0 | 0.00 | 0.00 | 0.00 | 85 | 1011.9 |
| 20260508093843 | 1 | 337 | 0.0 | 0.0 | 0.00 | 0.00 | 0.00 | 84 | 1011.8 |
| 20260508092845 | 1 | 337 | 0.0 | 0.0 | 0.00 | 0.00 | 0.00 | 82 | 1011.8 |
| 20260508091846 | 1 | 225 | 0.0 | 0.0 | 0.00 | 0.00 | 0.00 | 80 | 1011.8 |
| 20260508090944 | 1 | 225 | 0.0 | 1.6 | 0.00 | 0.00 | 0.00 | 77 | 1011.8 |
| 20260508090844 | 1 | 225 | 0.0 | 0.0 | 0.00 | 0.00 | 0.00 | 77 | 1011.7 |
| 20260508090745 | 2 | 225 | 1.6 | 3.2 | 0.00 | 0.00 | 0.00 | 76 | 1011.6 |
| 20260508090647 | 2 | 206 | 0.0 | 3.2 | 0.00 | 0.00 | 0.00 | 76 | 1011.6 |
| 20260508085744 | 2 | 270 | 0.0 | 0.0 | 0.00 | 0.00 | 0.00 | 74 | 1011.6 |
| 20260508085644 | 2 | 270 | 0.0 | 0.0 | 0.00 | 0.00 | 0.00 | 74 | 1011.6 |
| 20260508084743 | 2 | 22 | 0.0 | 0.0 | 0.00 | 0.00 | 0.00 | 75 | 1011.6 |
| 20260508083744 | 2 | 337 | 0.0 | 0.0 | 0.00 | 0.00 | 0.00 | 78 | 1011.7 |
| 20260508082745 | 2 | 293 | 0.0 | 1.6 | 0.00 | 0.00 | 0.00 | 81 | 1011.5 |
| 20260508080744 | 0 | 180 | 0.0 | 0.0 | 0.00 | 0.00 | 0.00 | 86 | 1011.5 |